Theta_e
310 311 310 311 312 314 315 314 317 318 319 320 320 319 319 319 319 317 314 318 316 309 312 317 317 311 311 308 304 308 307 308 304 301 302 302 301 303 299 300 304 301 300 300 299 296 297 316 315 306 310 316 321 321
311 310 310 310 311 312 313 313 316 317 318 320 321 320 319 318 318 318 312 319 320 313 313 318 322 323 320 318 311 307 306 306 307 303 302 302 302 302 299 298 304 302 305 303 305 305 311 314 313 317 318 318 319 319
311 311 311 311 310 312 312 314 317 316 318 320 320 321 320 318 318 318 311 312 314 311 313 312 312 319 319 320 317 308 306 310 307 309 305 302 300 301 297 299 301 306 309 308 307 312 312 314 315 318 317 316 316 317
310 310 311 310 310 310 311 315 317 318 318 319 319 319 318 317 317 317 310 313 313 311 306 309 321 317 321 318 318 316 311 309 310 308 303 302 302 306 302 304 303 306 308 307 306 310 313 315 316 316 317 318 318 319
310 309 310 310 310 310 312 315 315 315 316 317 316 316 316 316 315 313 313 312 316 312 305 307 315 316 317 316 316 313 311 308 307 305 303 303 304 305 304 304 302 308 307 304 303 309 311 312 316 319 317 319 323 324
310 309 310 309 309 309 310 312 314 314 314 314 313 314 314 313 314 310 310 315 316 314 308 303 312 314 316 314 312 312 312 309 308 306 304 305 307 306 301 300 307 308 309 311 310 311 314 318 319 319 318 320 323 325
309 309 309 309 309 309 309 311 313 314 314 313 313 313 312 311 311 308 308 312 311 311 309 304 306 314 316 312 309 310 309 309 308 306 304 305 306 306 302 300 307 310 312 313 315 316 314 318 316 319 321 322 322 326
308 309 309 309 308 309 309 310 311 313 314 313 312 312 311 312 310 307 313 313 314 314 312 302 304 307 312 307 307 309 307 308 307 305 305 304 305 304 300 305 308 311 312 313 316 315 315 315 318 317 319 323 322 322
308 309 309 309 308 309 309 309 310 312 313 312 312 312 310 307 305 307 319 320 318 315 309 305 300 301 311 308 307 308 308 304 307 305 304 306 301 301 305 306 309 312 312 315 315 316 313 315 318 317 318 321 320 321
309 309 309 309 308 308 309 309 310 311 311 311 307 301 296 303 316 317 315 312 313 314 313 305 306 304 307 305 305 306 305 303 301 306 307 303 302 306 308 311 313 314 315 316 311 312 309 310 314 315 316 320 322 324
309 309 310 309 309 309 308 309 310 311 310 302 301 299 305 315 306 307 304 305 307 306 310 310 305 303 308 303 303 306 303 304 300 304 305 301 301 306 311 311 313 312 316 317 316 316 314 313 314 314 315 319 322 324
309 309 309 309 309 309 308 308 310 308 304 303 305 309 308 305 303 300 300 304 303 303 309 308 307 308 307 308 303 305 305 303 299 307 303 299 305 308 311 314 317 319 314 317 319 318 317 315 315 317 319 320 323 325
309 309 309 309 309 309 309 309 309 309 308 307 305 303 300 300 291 294 293 297 300 305 308 308 306 307 308 308 304 304 303 304 311 304 301 301 305 306 307 310 313 317 320 321 320 320 320 319 319 321 321 322 325 324
308 308 308 308 309 308 308 308 309 308 303 299 297 288 294 293 293 294 296 301 306 307 307 307 305 305 306 304 307 304 304 304 300 300 301 303 304 304 306 309 314 315 317 321 322 320 319 319 319 322 323 323 323 321
308 308 308 308 308 308 308 309 309 306 301 297 298 290 292 296 297 300 301 301 305 309 308 307 307 306 306 304 307 304 303 300 299 297 300 302 303 305 306 308 310 314 314 315 322 319 318 318 319 321 322 323 323 322
308 307 305 308 308 308 308 307 306 303 300 299 299 296 295 295 295 299 300 301 305 308 310 309 304 301 302 304 304 303 302 299 300 302 303 303 303 303 305 307 309 313 315 316 320 320 318 317 319 322 322 320 320 322
307 300 307 308 308 308 308 303 302 297 296 297 294 296 296 296 296 297 301 304 310 307 301 303 299 299 303 299 299 303 300 302 305 307 306 304 304 303 305 307 309 312 314 315 317 321 317 320 320 320 319 319 321 321
300 302 308 308 305 304 301 301 298 297 293 295 294 294 296 297 297 300 302 306 306 303 302 300 303 298 298 297 298 303 305 307 308 308 308 309 306 304 306 306 309 310 312 314 316 318 320 318 320 321 322 321 321 318
303 302 308 307 303 298 295 296 297 292 294 296 297 296 294 295 298 300 302 306 307 307 303 300 299 296 296 301 303 304 305 305 305 305 306 308 307 307 306 307 309 309 311 313 315 317 320 321 321 323 323 322 321 321
306 307 308 307 305 297 294 294 299 294 292 293 293 293 292 291 295 298 299 303 302 300 297 294 293 296 297 299 303 302 303 305 302 300 300 302 306 307 305 306 308 309 313 314 316 311 321 321 320 322 324 323 322 321
304 305 307 304 299 298 294 294 292 290 290 290 292 292 291 292 291 292 295 299 298 294 292 295 297 299 300 299 300 301 303 303 303 301 301 302 303 304 305 306 308 310 312 312 314 315 315 320 324 324 323 323 325 325
301 306 301 302 296 295 293 296 294 296 293 291 292 292 291 290 290 291 293 291 291 293 297 297 297 298 298 298 300 301 304 303 303 303 302 303 303 304 303 305 306 308 312 312 314 315 315 322 324 323 324 323 320 323
303 301 298 298 293 290 290 297 292 294 290 289 291 289 290 290 292 295 291 291 293 296 298 298 299 300 300 302 299 300 302 302 302 303 305 306 307 306 306 307 308 309 311 312 316 315 315 311 316 321 324 321 321 319
304 296 293 291 292 287 291 292 295 294 293 292 291 289 290 291 293 290 289 290 294 295 295 296 297 297 297 297 298 301 302 302 303 304 305 304 304 306 307 308 309 311 314 314 315 315 318 320 312 321 321 319 317 314
289 290 290 286 292 290 289 288 288 289 289 291 288 288 289 292 288 288 288 291 291 293 295 297 296 296 297 298 298 300 302 301 301 301 305 306 307 305 304 307 309 310 316 314 315 316 316 319 318 317 318 316 314 314
285 290 288 290 290 288 290 287 288 289 289 288 288 289 289 288 288 287 289 294 296 298 299 299 300 300 297 298 299 299 300 301 302 301 304 305 308 307 306 304 304 307 316 318 317 317 316 316 316 316 316 313 303 312
286 289 291 295 294 294 292 293 293 291 289 287 290 289 288 286 287 290 295 298 298 300 301 301 301 299 299 300 301 302 304 304 303 304 305 305 308 310 309 306 306 309 317 318 319 318 317 316 315 315 315 317 313 313
292 292 288 290 290 292 291 289 290 291 292 292 292 290 290 290 290 295 298 301 301 301 301 301 302 303 302 302 305 306 306 304 305 305 304 306 306 308 309 310 313 306 314 317 319 319 318 317 316 315 312 314 315 313
288 289 290 287 288 289 289 290 290 293 295 295 292 291 292 296 297 297 298 301 302 300 299 298 298 300 302 303 305 307 303 302 300 300 300 300 302 304 308 310 311 312 315 316 303 306 312 312 313 314 313 310 310 310
288 290 289 289 289 288 291 292 292 297 299 297 296 295 295 296 299 300 299 299 300 300 300 300 300 301 298 299 302 302 305 304 303 301 302 302 305 308 309 309 309 313 315 317 317 317 307 312 310 306 306 307 306 305
290 292 289 290 289 292 293 294 294 295 295 294 297 295 295 296 298 300 301 301 299 299 299 299 302 303 303 302 303 302 302 306 309 308 309 310 310 310 311 311 310 310 314 315 316 316 314 313 313 312 309 306 306 304
288 288 288 287 288 292 294 293 292 292 292 292 292 293 294 293 292 299 305 304 303 303 303 304 304 304 304 304 304 305 301 306 308 311 310 309 310 311 312 312 312 314 313 312 313 314 314 313 312 311 309 308 307 307
289 289 290 289 289 290 293 294 294 294 293 294 295 297 297 297 296 301 306 308 306 305 304 305 305 306 306 306 304 303 302 306 303 298 298 298 297 300 307 307 309 311 311 312 311 310 310 310 310 309 309 309 308 309
Wind_Speed
11 11 12 13 13 13 15 13 11 11 11 11 10 11 12 13 12 6 5 2 3 1 7 4 3 1 2 2 2 5 5 5 5 5 2 2 1 2 3 3 2 3 4 2 3 4 4 0 1 4 7 1 6 6
12 11 12 13 14 14 14 14 12 11 12 11 10 9 10 11 11 7 3 2 1 3 7 4 9 11 9 13 5 1 4 3 4 4 0 1 2 3 1 2 5 2 5 5 6 7 5 4 2 3 4 5 2 6
12 11 11 11 11 12 15 14 13 12 12 10 9 8 8 9 8 4 3 3 2 2 6 3 4 5 3 7 5 4 3 4 1 4 4 2 0 3 1 3 3 5 2 3 4 4 1 3 3 4 4 6 5 5
11 11 11 10 10 12 15 12 11 11 9 8 6 6 6 5 7 4 2 1 2 0 2 8 4 6 4 5 8 7 4 3 5 3 2 3 2 3 4 3 3 5 3 2 2 3 2 3 2 5 6 6 5 4
12 11 11 10 10 10 12 9 7 7 3 1 3 4 6 7 8 4 4 3 2 4 3 6 9 7 6 3 8 7 6 4 2 2 2 3 2 2 0 2 3 4 6 4 6 6 4 6 6 5 6 6 6 6
11 11 10 10 10 9 9 10 8 6 5 5 6 7 8 9 9 1 1 0 1 1 1 5 5 6 4 3 2 5 5 4 3 5 3 3 3 4 2 3 6 4 3 6 4 5 9 4 5 4 7 7 5 8
13 12 10 10 10 9 8 9 8 8 6 6 8 8 9 8 3 3 3 1 3 1 3 4 6 6 4 2 1 3 2 2 4 3 2 3 2 4 3 5 6 7 8 7 7 4 1 5 7 8 8 8 9 6
13 12 10 9 9 9 8 8 8 9 9 7 8 9 11 12 6 6 2 2 4 2 2 2 6 5 4 2 2 1 4 2 1 4 2 2 2 2 4 9 9 9 7 5 9 7 7 3 3 5 4 6 7 9
13 12 11 9 8 7 8 7 7 9 9 7 8 11 4 0 2 3 6 8 3 3 3 3 3 4 5 2 1 3 3 2 0 3 3 5 1 5 8 8 7 7 6 6 2 5 5 7 9 7 6 6 9 7
13 12 10 9 7 6 6 6 6 6 5 2 3 2 3 3 7 8 2 2 2 3 3 3 1 4 3 3 2 2 1 4 3 6 4 4 5 7 7 9 7 6 8 4 3 1 3 3 7 7 9 8 10 13
13 11 11 10 8 7 6 6 6 4 5 1 2 3 4 4 3 2 2 3 3 4 4 4 6 3 2 2 2 2 2 1 3 6 7 4 4 5 6 9 8 8 8 9 8 7 8 8 8 7 6 8 8 10
13 11 11 10 8 7 6 5 4 3 2 3 1 3 2 1 1 3 4 3 4 4 2 4 9 7 3 2 2 2 3 2 6 3 5 5 1 8 13 15 16 15 10 12 10 11 9 9 8 8 8 9 12 11
13 12 11 10 9 7 6 5 5 4 4 3 3 3 3 2 3 5 5 3 3 3 4 3 2 3 1 1 2 1 4 5 1 3 6 3 5 7 9 12 16 12 14 8 10 8 10 8 7 7 7 7 12 12
13 12 12 11 11 7 6 5 4 6 2 2 2 2 5 5 6 6 4 3 2 2 3 3 0 3 1 4 4 4 6 1 3 2 4 2 5 7 7 8 10 16 17 17 14 9 10 10 9 8 10 11 11 11
14 11 11 9 11 8 6 6 8 1 2 4 4 5 7 5 3 3 3 2 1 2 3 2 0 1 1 3 5 4 4 5 1 3 1 4 7 7 10 13 14 13 13 14 16 9 8 9 8 8 8 11 14 11
11 7 5 8 12 9 7 5 3 2 2 4 4 3 3 1 3 3 3 4 2 3 2 3 3 1 3 2 3 4 3 4 3 2 3 2 5 6 6 8 10 11 10 11 14 12 8 8 10 11 11 10 9 14
11 3 10 13 13 10 10 2 2 4 3 3 3 2 3 3 4 4 3 4 2 4 3 3 5 4 2 1 2 3 4 3 1 3 2 3 6 7 7 7 10 11 10 9 9 10 7 7 4 9 13 11 12 11
2 4 11 15 9 6 1 1 2 4 5 2 3 2 2 2 3 3 3 1 2 3 3 2 3 3 3 2 2 3 2 2 3 4 5 5 7 6 6 8 9 10 11 9 8 8 8 4 9 9 13 14 12 8
4 5 15 18 6 4 3 2 1 3 3 2 4 3 2 3 4 4 2 3 3 1 5 3 0 2 3 3 2 3 3 3 4 4 5 6 7 6 5 7 8 9 12 10 7 5 7 6 6 6 10 11 11 9
10 11 20 16 6 1 3 2 1 1 3 3 3 3 2 3 2 2 0 2 2 2 2 3 4 4 4 3 3 3 3 3 2 3 4 4 4 4 4 5 7 9 10 9 7 6 4 4 4 6 9 13 12 11
8 4 17 7 2 2 2 1 2 3 3 3 3 3 4 2 0 3 3 4 3 3 3 4 4 5 5 4 3 3 5 4 5 5 6 8 3 3 4 4 5 6 6 7 7 7 5 3 4 4 8 12 12 11
3 6 3 1 2 2 2 2 2 2 2 3 3 3 2 2 3 4 3 2 3 5 6 5 5 5 5 6 8 6 7 6 6 4 7 5 6 5 4 3 3 5 6 8 10 7 5 6 2 4 5 6 7 7
7 3 2 2 3 3 3 2 3 4 3 3 3 2 2 2 5 2 3 4 5 6 6 6 7 7 8 9 3 6 7 7 5 6 7 7 6 6 5 6 5 6 6 7 8 8 5 3 3 4 4 5 6 6
5 2 3 4 4 3 2 3 3 2 1 3 3 3 4 4 1 2 4 4 4 3 4 6 4 4 2 3 4 8 9 5 7 7 6 5 7 9 5 6 6 6 5 6 9 8 6 2 4 1 4 4 5 7
3 3 3 3 3 3 5 4 4 4 5 6 2 3 3 2 1 2 3 4 2 2 2 3 4 5 6 6 4 7 7 6 7 7 8 6 8 4 4 6 7 7 4 6 6 7 6 1 7 4 2 7 11 11
2 4 4 6 3 4 4 4 6 6 4 4 5 3 1 2 2 4 3 2 2 2 3 3 2 1 2 4 4 3 4 2 4 5 7 6 7 7 8 5 4 5 6 5 4 6 3 5 6 5 6 3 3 4
3 4 4 4 3 3 3 4 1 2 3 3 2 1 2 2 4 4 2 3 3 4 3 2 3 3 4 4 4 4 4 4 6 5 5 5 6 7 7 6 7 5 4 4 4 4 3 4 7 7 4 5 4 7
4 4 6 5 5 4 4 2 2 4 3 2 1 3 3 4 4 4 5 4 4 3 3 3 4 4 5 5 4 5 4 3 4 5 4 3 0 4 6 5 5 7 4 4 4 2 3 4 5 6 7 12 14 14
4 3 1 2 2 2 3 5 3 3 3 4 4 3 3 3 3 3 3 3 3 2 3 4 4 3 4 4 5 3 3 2 3 4 4 3 4 4 4 4 5 5 4 4 0 3 7 8 9 11 13 9 7 3
5 4 3 2 4 4 5 6 4 4 3 4 4 1 3 4 5 3 2 3 3 5 5 4 4 3 4 1 3 2 2 1 1 2 2 2 3 4 5 5 2 5 6 5 3 3 8 6 10 8 4 2 2 2
2 1 2 3 4 5 5 3 2 1 1 4 4 4 6 4 4 2 2 3 3 3 1 2 2 2 1 2 2 1 3 2 1 2 4 3 3 5 1 5 5 3 7 8 8 6 2 4 7 8 6 9 7 5
2 4 3 2 4 4 1 2 3 3 3 3 3 1 3 1 3 3 3 2 3 2 4 5 4 2 4 4 3 3 6 4 4 3 6 5 1 3 3 4 5 5 5 3 5 9 13 15 12 15 14 12 7 7
1 2 2 1 2 2 2 1 2 4 3 3 3 3 2 2 3 2 3 3 1 1 2 2 2 1 3 4 5 4 4 4 5 1 2 1 4 5 2 2 3 0 5 6 1 3 3 7 5 4 6 6 5 6
Wind_Direction
293 300 307 310 313 307 303 293 293 297 296 290 294 312 324 336 343 0 278 295 91 233 277 227 268 205 30 73 99 286 17 344 27 56 79 289 3 309 2 325 345 146 126 153 96 86 255 60 193 193 206 45 119 123
287 288 295 302 304 310 308 290 287 289 286 283 281 290 311 325 333 346 292 323 26 174 248 252 251 242 199 212 153 282 198 223 208 84 346 114 347 8 125 318 341 28 175 182 159 213 247 281 173 80 122 118 121 122
278 282 284 288 292 299 311 300 299 277 273 273 270 280 295 315 324 342 284 297 13 4 299 343 274 292 267 192 176 137 280 212 168 173 158 163 1 124 27 274 334 330 146 97 70 295 300 1 57 124 151 136 147 154
275 280 283 282 291 296 301 286 313 296 268 267 264 281 311 324 323 319 267 281 116 194 267 281 327 296 226 192 193 191 178 58 102 88 108 132 170 161 211 220 157 219 25 120 321 290 46 338 256 167 136 126 124 126
278 280 282 288 288 299 310 304 314 330 347 303 306 320 324 332 329 292 242 245 237 151 248 281 306 258 282 247 188 165 149 128 110 76 90 228 223 110 355 62 263 187 180 139 219 223 188 229 194 177 147 152 150 126
278 280 277 281 287 290 299 300 296 300 308 316 327 327 325 333 341 305 318 59 252 158 121 308 290 290 309 289 265 193 160 110 114 142 206 252 261 110 158 224 257 238 197 162 211 211 211 290 216 180 159 159 163 139
277 277 280 281 282 278 276 282 283 281 285 301 317 320 319 323 325 207 199 181 27 233 143 302 295 270 278 186 82 105 73 131 125 150 205 187 244 104 140 221 251 223 216 221 230 160 265 169 197 195 157 162 149 136
268 271 273 276 277 277 274 268 267 262 262 278 300 308 308 298 276 291 227 191 160 232 145 222 266 328 355 260 176 187 116 61 324 175 75 176 12 77 242 250 246 246 254 275 250 213 198 228 173 195 133 134 137 148
255 262 264 261 268 279 268 271 280 258 246 269 313 310 323 17 241 247 280 288 190 239 216 169 207 241 350 348 271 38 87 127 319 172 221 111 212 227 225 230 242 240 192 205 175 200 187 186 195 182 151 155 141 161
250 253 254 248 261 275 279 270 273 267 247 49 12 21 301 232 298 310 31 159 202 210 214 219 178 266 40 357 10 88 18 196 157 234 112 153 243 243 240 228 234 244 231 241 142 147 190 236 200 189 183 184 174 164
239 243 243 246 241 259 267 258 264 233 111 88 205 231 249 323 25 2 212 201 202 203 189 203 177 204 293 60 283 177 195 208 168 233 152 193 266 253 292 263 271 253 232 221 217 239 202 178 190 197 196 184 172 159
230 237 233 230 221 245 259 247 261 195 176 221 272 283 301 323 219 211 203 224 218 228 195 181 204 191 257 132 96 275 231 136 228 140 131 171 264 347 358 346 342 333 278 250 222 220 221 209 200 191 188 167 172 165
223 228 221 217 210 221 231 228 224 235 1 315 208 190 143 171 218 220 202 207 210 196 196 190 178 161 127 93 196 240 238 244 116 171 194 118 351 335 343 337 330 338 345 319 273 220 204 213 184 179 174 179 158 157
220 222 215 223 204 204 212 226 189 135 123 253 173 235 208 188 222 207 202 194 215 163 148 123 148 175 201 144 193 188 232 322 281 200 147 352 302 316 325 340 350 345 347 335 318 267 220 186 190 180 169 157 153 158
217 215 210 216 194 189 206 198 175 114 206 238 195 219 217 234 260 253 232 309 315 118 129 127 106 110 193 239 190 187 195 216 119 107 279 285 312 324 335 346 349 343 338 332 318 280 233 195 173 171 159 173 169 158
205 187 193 185 180 174 171 164 150 137 248 242 233 264 243 213 274 225 231 256 209 130 35 56 60 352 247 258 251 216 210 75 110 194 223 276 295 304 308 317 318 306 319 336 325 299 241 209 183 179 164 162 171 165
145 183 188 178 165 159 153 139 180 205 246 249 242 263 242 260 239 262 206 233 161 120 169 154 175 224 22 343 255 27 75 129 192 258 231 237 267 281 293 292 295 310 310 295 305 322 290 232 182 147 165 178 171 177
145 207 171 150 128 105 60 295 243 227 233 266 273 261 220 278 301 291 335 263 128 145 150 203 133 185 197 188 185 131 173 223 249 262 238 245 250 245 266 278 286 292 290 292 286 316 331 201 183 198 177 172 163 159
162 152 153 146 143 117 146 211 185 278 224 228 270 237 215 245 271 275 303 357 12 123 116 81 262 207 225 227 173 163 188 188 209 234 236 228 250 253 267 285 287 292 305 306 302 315 317 282 228 210 174 167 172 171
161 155 151 158 152 128 188 227 181 257 278 251 303 287 216 208 242 296 119 14 32 39 97 164 203 223 199 215 182 206 222 201 184 287 288 271 244 257 261 278 296 303 313 307 300 290 315 325 257 194 194 177 167 175
87 164 157 132 70 34 324 200 230 215 265 253 242 190 266 338 127 192 239 162 145 202 225 212 225 247 223 244 223 220 248 194 216 204 257 288 265 251 276 270 268 297 306 313 298 309 331 261 257 269 203 185 183 179
100 97 101 75 110 166 261 256 250 289 262 252 289 193 198 244 260 236 177 138 215 207 190 194 215 222 244 251 248 203 227 225 236 244 259 256 277 282 280 260 281 290 298 300 292 283 288 281 205 205 241 213 141 144
102 66 79 128 158 179 256 168 215 219 231 264 325 250 238 224 227 149 229 208 222 210 196 199 215 210 216 242 231 253 235 221 236 235 251 254 257 260 255 259 250 262 278 296 291 291 275 290 242 189 195 205 158 157
130 152 168 183 205 211 221 222 212 232 248 278 231 227 224 218 184 125 238 256 236 176 186 222 203 241 287 266 229 247 254 199 238 258 244 237 254 261 225 241 246 249 248 278 282 281 261 115 65 91 142 199 148 145
129 188 149 218 197 239 211 201 203 204 206 216 240 283 269 87 138 256 237 271 306 279 265 268 233 214 220 238 248 247 247 180 216 235 257 206 244 272 254 233 236 239 235 270 281 302 321 323 90 17 307 190 163 172
216 188 205 197 192 212 224 196 200 207 201 203 233 243 80 130 173 248 240 238 224 222 228 206 193 267 271 210 258 271 282 249 194 210 261 202 215 220 243 235 232 254 204 221 245 303 320 54 64 71 331 292 241 197
236 213 195 230 237 220 239 255 211 144 209 229 240 253 182 212 230 252 265 239 217 232 216 223 203 215 238 271 267 251 263 269 213 221 255 235 219 211 205 214 234 229 184 198 216 266 323 42 54 29 280 273 199 208
242 220 195 189 194 220 227 222 211 207 209 239 76 184 215 215 239 231 217 235 220 248 241 254 237 225 244 251 263 278 292 261 273 263 278 291 241 194 204 212 229 207 194 220 232 292 315 346 22 7 347 238 242 223
247 252 196 221 202 242 226 197 229 239 198 146 171 229 248 237 232 222 248 215 179 185 274 292 292 239 265 274 262 270 319 336 299 345 357 353 346 319 269 224 203 190 160 231 143 313 323 5 340 311 296 262 211 205
252 178 173 207 171 220 236 182 218 226 183 183 184 282 298 272 251 219 219 181 189 218 227 245 270 288 285 275 309 360 351 332 79 213 232 273 262 283 316 3 236 187 168 151 109 328 342 353 311 309 318 321 107 126
257 48 190 184 224 242 230 239 288 293 235 216 210 206 247 268 312 351 322 268 222 179 121 335 27 350 224 153 88 314 306 295 217 352 317 294 291 285 313 342 332 211 177 175 149 132 174 286 297 295 285 270 243 209
175 200 188 235 273 275 334 189 231 216 233 202 249 283 317 277 266 297 316 26 41 85 153 156 123 357 311 280 264 243 234 271 307 281 282 294 276 316 354 320 333 39 65 113 172 175 203 217 235 252 251 224 192 168
202 186 191 231 320 303 298 4 346 327 2 36 19 353 303 290 273 279 346 27 38 281 240 279 103 120 318 316 282 286 313 297 315 240 223 78 17 352 10 5 330 60 99 79 17 234 114 131 169 164 129 121 128 132